{"data":{"norad_id":53891,"epoch":"2026-05-25T04:00:03.998880Z","epoch_age_seconds":50731,"freshness":"FRESH","line1":"1 53891U 22119F   26145.16671295  .00047510  00000+0  14161-2 0  9997","line2":"2 53891  53.2178 335.8668 0000985 101.3763 159.0278 15.34228342  5861","mean_motion":15.34228342,"eccentricity":9.85e-5,"inclination_deg":53.2178,"raan_deg":335.8668,"arg_perigee_deg":101.3763,"mean_anomaly_deg":159.0278,"bstar":0.0014161,"rev_number":586,"period_min":93.858258290473,"perigee_km":462.53961850474,"apogee_km":463.88736455157,"semimajor_km":6841.3504915282,"source":"CELESTRAK","updated_at":"2026-05-25T13:38:17.582404Z"}}